Time,TemperatureF,DewpointF,PressureIn,WindDirection,WindDirectionDegrees,WindSpeedMPH,WindSpeedGustMPH,Humidity,HourlyPrecipIn,Conditions,Clouds,dailyrainin,SoftwareType,DateUTC
2013-09-03 00:01:00,72.1,68.3,29.71,South,186,1.0,1.0,88,0.00,,,0.00,Wunderground v.1.15,2013-09-03 04:01:00,
2013-09-03 00:02:00,72.1,68.3,29.71,East,94,1.0,1.0,88,0.00,,,0.00,Wunderground v.1.15,2013-09-03 04:02:00,
2013-09-03 00:06:00,72.1,68.3,29.71,SW,236,2.0,3.0,88,0.00,,,0.00,Wunderground v.1.15,2013-09-03 04:06:00,
2013-09-03 00:08:00,72.1,68.3,29.71,SW,236,1.0,3.0,88,0.00,,,0.00,Wunderground v.1.15,2013-09-03 04:08:00,
2013-09-03 00:11:00,72.1,68.3,29.71,SE,136,1.0,1.0,88,0.00,,,0.00,Wunderground v.1.15,2013-09-03 04:11:00,
2013-09-03 00:16:00,72.2,68.4,29.71,WNW,287,1.0,1.0,88,0.00,,,0.00,Wunderground v.1.15,2013-09-03 04:16:00,
2013-09-03 00:22:00,72.2,68.4,29.71,WNW,287,1.0,1.0,88,0.00,,,0.00,Wunderground v.1.15,2013-09-03 04:22:00,
2013-09-03 00:28:00,72.1,68.3,29.71,WNW,286,0.0,1.0,88,0.00,,,0.00,Wunderground v.1.15,2013-09-03 04:28:00,
2013-09-03 00:34:00,72.1,68.3,29.71,SW,219,1.0,2.0,88,0.00,,,0.00,Wunderground v.1.15,2013-09-03 04:34:00,
2013-09-03 00:41:00,72.0,68.2,29.71,SSW,210,1.0,1.0,88,0.00,,,0.00,Wunderground v.1.15,2013-09-03 04:41:00,
2013-09-03 00:47:00,71.9,68.2,29.71,South,190,1.0,2.0,88,0.00,,,0.00,Wunderground v.1.15,2013-09-03 04:47:00,
2013-09-03 00:53:00,71.7,68.0,29.71,NW,304,1.0,1.0,88,0.00,,,0.00,Wunderground v.1.15,2013-09-03 04:53:00,
2013-09-03 00:59:00,71.6,67.9,29.71,WNW,303,1.0,1.0,88,0.00,,,0.00,Wunderground v.1.15,2013-09-03 04:59:00,
2013-09-03 01:06:00,71.4,67.7,29.70,SSW,200,1.0,2.0,88,0.00,,,0.00,Wunderground v.1.15,2013-09-03 05:06:00,
2013-09-03 01:12:00,71.3,67.6,29.70,South,179,1.0,1.0,88,0.00,,,0.00,Wunderground v.1.15,2013-09-03 05:12:00,
2013-09-03 01:18:00,71.1,67.4,29.70,South,180,0.0,2.0,88,0.00,,,0.00,Wunderground v.1.15,2013-09-03 05:18:00,
2013-09-03 01:23:00,71.0,67.3,29.69,South,179,0.0,1.0,88,0.00,,,0.00,Wunderground v.1.15,2013-09-03 05:23:00,
2013-09-03 01:29:00,70.9,67.2,29.70,SSW,209,0.0,1.0,88,0.00,,,0.00,Wunderground v.1.15,2013-09-03 05:29:00,
2013-09-03 01:34:00,70.8,67.1,29.69,SSW,209,0.0,1.0,88,0.00,,,0.00,Wunderground v.1.15,2013-09-03 05:34:00,
2013-09-03 01:41:00,70.7,67.0,29.69,SW,216,1.0,1.0,88,0.00,,,0.00,Wunderground v.1.15,2013-09-03 05:41:00,
2013-09-03 01:47:00,70.7,67.0,29.69,WSW,237,1.0,1.0,88,0.00,,,0.00,Wunderground v.1.15,2013-09-03 05:47:00,
2013-09-03 01:53:00,70.6,66.9,29.69,South,173,1.0,1.0,88,0.00,,,0.00,Wunderground v.1.15,2013-09-03 05:53:00,
2013-09-03 01:59:00,70.6,66.9,29.69,South,182,1.0,2.0,88,0.00,,,0.00,Wunderground v.1.15,2013-09-03 05:59:00,
2013-09-03 02:06:00,70.6,66.9,29.70,NW,317,1.0,3.0,88,0.00,,,0.00,Wunderground v.1.15,2013-09-03 06:06:00,
2013-09-03 02:12:00,70.6,66.9,29.69,West,273,1.0,2.0,88,0.00,,,0.00,Wunderground v.1.15,2013-09-03 06:12:00,
2013-09-03 02:17:00,70.5,66.8,29.69,West,266,1.0,2.0,88,0.00,,,0.00,Wunderground v.1.15,2013-09-03 06:17:00,
2013-09-03 02:23:00,70.5,66.8,29.69,West,271,1.0,1.0,88,0.00,,,0.00,Wunderground v.1.15,2013-09-03 06:23:00,
2013-09-03 02:29:00,70.4,66.7,29.69,North,349,0.0,1.0,88,0.00,,,0.00,Wunderground v.1.15,2013-09-03 06:29:00,
2013-09-03 02:36:00,70.3,66.6,29.68,ESE,106,0.0,1.0,88,0.00,,,0.00,Wunderground v.1.15,2013-09-03 06:36:00,
2013-09-03 02:42:00,70.2,66.5,29.68,ESE,117,1.0,1.0,88,0.00,,,0.00,Wunderground v.1.15,2013-09-03 06:42:00,
2013-09-03 02:48:00,70.0,66.3,29.68,ESE,117,0.0,1.0,88,0.00,,,0.00,Wunderground v.1.15,2013-09-03 06:48:00,
2013-09-03 02:54:00,69.8,66.1,29.67,ESE,117,0.0,0.0,88,0.00,,,0.00,Wunderground v.1.15,2013-09-03 06:54:00,
2013-09-03 02:59:00,69.8,66.1,29.67,SSW,202,1.0,1.0,88,0.00,,,0.00,Wunderground v.1.15,2013-09-03 06:59:00,
2013-09-03 03:06:00,69.8,66.1,29.67,SSW,202,1.0,1.0,88,0.00,,,0.00,Wunderground v.1.15,2013-09-03 07:06:00,
2013-09-03 03:12:00,69.9,66.2,29.68,SSW,205,0.0,1.0,88,0.00,,,0.00,Wunderground v.1.15,2013-09-03 07:12:00,
2013-09-03 03:18:00,70.1,66.4,29.67,SSE,151,1.0,2.0,88,0.00,,,0.00,Wunderground v.1.15,2013-09-03 07:18:00,
2013-09-03 03:24:00,70.1,66.4,29.68,WSW,240,1.0,1.0,88,0.00,,,0.00,Wunderground v.1.15,2013-09-03 07:24:00,
2013-09-03 03:29:00,70.1,66.4,29.68,NNW,329,0.0,4.0,88,0.00,,,0.00,Wunderground v.1.15,2013-09-03 07:29:00,
2013-09-03 03:36:00,70.0,66.3,29.68,NE,41,1.0,3.0,88,0.00,,,0.00,Wunderground v.1.15,2013-09-03 07:36:00,
2013-09-03 03:42:00,70.0,66.3,29.68,North,355,1.0,1.0,88,0.00,,,0.00,Wunderground v.1.15,2013-09-03 07:42:00,
2013-09-03 03:47:00,69.9,66.2,29.67,WNW,290,1.0,4.0,88,0.00,,,0.00,Wunderground v.1.15,2013-09-03 07:47:00,
2013-09-03 03:52:00,69.9,66.2,29.67,NE,51,1.0,1.0,88,0.00,,,0.00,Wunderground v.1.15,2013-09-03 07:52:00,
2013-09-03 03:58:00,69.9,66.2,29.67,SW,226,1.0,3.0,88,0.00,,,0.00,Wunderground v.1.15,2013-09-03 07:58:00,
2013-09-03 04:04:00,69.8,66.4,29.67,NNW,327,1.0,4.0,89,0.00,,,0.00,Wunderground v.1.15,2013-09-03 08:04:00,
2013-09-03 04:09:00,69.7,66.3,29.67,NW,316,2.0,4.0,89,0.00,,,0.00,Wunderground v.1.15,2013-09-03 08:09:00,
2013-09-03 04:16:00,69.7,66.3,29.67,West,267,2.0,5.0,89,0.00,,,0.00,Wunderground v.1.15,2013-09-03 08:16:00,
2013-09-03 04:21:00,69.7,66.3,29.67,NW,319,3.0,3.0,89,0.00,,,0.00,Wunderground v.1.15,2013-09-03 08:21:00,
2013-09-03 04:26:00,69.7,66.3,29.67,NNW,342,2.0,3.0,89,0.00,,,0.00,Wunderground v.1.15,2013-09-03 08:26:00,
2013-09-03 04:32:00,69.7,66.3,29.68,NW,318,2.0,3.0,89,0.00,,,0.00,Wunderground v.1.15,2013-09-03 08:32:00,
2013-09-03 04:37:00,69.7,66.3,29.67,WNW,303,2.0,4.0,89,0.00,,,0.00,Wunderground v.1.15,2013-09-03 08:37:00,
2013-09-03 04:43:00,69.6,66.2,29.68,WSW,256,2.0,2.0,89,0.00,,,0.00,Wunderground v.1.15,2013-09-03 08:43:00,
2013-09-03 04:49:00,69.5,66.1,29.68,North,349,1.0,2.0,89,0.00,,,0.00,Wunderground v.1.15,2013-09-03 08:49:00,
2013-09-03 04:56:00,69.4,65.7,29.68,NW,311,1.0,1.0,88,0.00,,,0.00,Wunderground v.1.15,2013-09-03 08:56:00,
2013-09-03 05:02:00,69.3,65.6,29.68,WNW,301,1.0,1.0,88,0.00,,,0.00,Wunderground v.1.15,2013-09-03 09:02:00,
2013-09-03 05:08:00,69.1,65.7,29.69,WNW,302,1.0,1.0,89,0.00,,,0.00,Wunderground v.1.15,2013-09-03 09:08:00,
2013-09-03 05:14:00,68.9,65.5,29.70,WNW,283,1.0,3.0,89,0.00,,,0.00,Wunderground v.1.15,2013-09-03 09:14:00,
2013-09-03 05:19:00,68.8,65.4,29.70,NNW,340,1.0,3.0,89,0.00,,,0.00,Wunderground v.1.15,2013-09-03 09:19:00,
2013-09-03 05:26:00,68.7,65.0,29.70,NW,315,1.0,2.0,88,0.00,,,0.00,Wunderground v.1.15,2013-09-03 09:26:00,
2013-09-03 05:32:00,68.5,64.8,29.70,NW,321,1.0,1.0,88,0.00,,,0.00,Wunderground v.1.15,2013-09-03 09:32:00,
2013-09-03 05:38:00,68.4,64.7,29.70,WNW,294,1.0,3.0,88,0.00,,,0.00,Wunderground v.1.15,2013-09-03 09:38:00,
2013-09-03 05:44:00,68.3,64.9,29.70,West,280,1.0,1.0,89,0.00,,,0.00,Wunderground v.1.15,2013-09-03 09:44:00,
2013-09-03 05:51:00,68.1,64.7,29.70,NW,319,1.0,1.0,89,0.00,,,0.00,Wunderground v.1.15,2013-09-03 09:51:00,
2013-09-03 05:57:00,68.0,64.3,29.71,NW,318,1.0,1.0,88,0.00,,,0.00,Wunderground v.1.15,2013-09-03 09:57:00,
2013-09-03 06:03:00,67.8,64.1,29.71,NW,315,1.0,1.0,88,0.00,,,0.00,Wunderground v.1.15,2013-09-03 10:03:00,
2013-09-03 06:08:00,67.7,64.0,29.71,NW,304,1.0,1.0,88,0.00,,,0.00,Wunderground v.1.15,2013-09-03 10:08:00,
2013-09-03 06:14:00,67.6,64.2,29.71,NW,311,1.0,3.0,89,0.00,,,0.00,Wunderground v.1.15,2013-09-03 10:14:00,
2013-09-03 06:21:00,67.5,64.1,29.71,NW,308,1.0,1.0,89,0.00,,,0.00,Wunderground v.1.15,2013-09-03 10:21:00,
2013-09-03 06:27:00,67.4,64.0,29.71,NW,311,0.0,1.0,89,0.00,,,0.00,Wunderground v.1.15,2013-09-03 10:27:00,
2013-09-03 06:33:00,67.4,64.0,29.71,NW,311,0.0,1.0,89,0.00,,,0.00,Wunderground v.1.15,2013-09-03 10:33:00,
2013-09-03 06:39:00,67.3,63.6,29.71,NW,311,0.0,1.0,88,0.00,,,0.00,Wunderground v.1.15,2013-09-03 10:39:00,
2013-09-03 06:46:00,67.3,63.6,29.71,NE,37,0.0,1.0,88,0.00,,,0.00,Wunderground v.1.15,2013-09-03 10:46:00,
2013-09-03 06:51:00,67.3,63.9,29.72,NNE,32,0.0,0.0,89,0.00,,,0.00,Wunderground v.1.15,2013-09-03 10:51:00,
2013-09-03 06:57:00,67.4,64.0,29.72,NNE,25,0.0,1.0,89,0.00,,,0.00,Wunderground v.1.15,2013-09-03 10:57:00,
2013-09-03 07:02:00,67.4,64.0,29.72,WSW,252,0.0,0.0,89,0.00,,,0.00,Wunderground v.1.15,2013-09-03 11:02:00,
2013-09-03 07:08:00,67.4,64.0,29.73,West,259,1.0,1.0,89,0.00,,,0.00,Wunderground v.1.15,2013-09-03 11:08:00,
2013-09-03 07:14:00,67.7,64.3,29.73,WSW,254,0.0,1.0,89,0.00,,,0.00,Wunderground v.1.15,2013-09-03 11:14:00,
2013-09-03 07:19:00,68.0,64.6,29.73,WSW,254,1.0,3.0,89,0.00,,,0.00,Wunderground v.1.15,2013-09-03 11:19:00,
2013-09-03 07:26:00,68.1,64.7,29.73,West,273,1.0,1.0,89,0.00,,,0.00,Wunderground v.1.15,2013-09-03 11:26:00,
2013-09-03 07:31:00,68.3,64.9,29.73,NW,321,1.0,1.0,89,0.00,,,0.00,Wunderground v.1.15,2013-09-03 11:31:00,
2013-09-03 07:37:00,68.5,65.1,29.73,NW,304,2.0,4.0,89,0.00,,,0.00,Wunderground v.1.15,2013-09-03 11:37:00,
2013-09-03 07:43:00,68.7,65.3,29.74,NW,311,2.0,3.0,89,0.00,,,0.00,Wunderground v.1.15,2013-09-03 11:43:00,
2013-09-03 07:49:00,68.8,65.4,29.74,West,279,2.0,3.0,89,0.00,,,0.00,Wunderground v.1.15,2013-09-03 11:49:00,
2013-09-03 07:54:00,69.0,65.6,29.74,NW,317,2.0,3.0,89,0.00,,,0.00,Wunderground v.1.15,2013-09-03 11:54:00,
2013-09-03 07:59:00,69.1,65.7,29.74,NW,311,1.0,5.0,89,0.00,,,0.00,Wunderground v.1.15,2013-09-03 11:59:00,
2013-09-03 08:06:00,69.3,65.9,29.74,NW,310,2.0,3.0,89,0.00,,,0.00,Wunderground v.1.15,2013-09-03 12:06:00,
2013-09-03 08:12:00,69.4,66.0,29.74,NW,315,3.0,3.0,89,0.00,,,0.00,Wunderground v.1.15,2013-09-03 12:12:00,
2013-09-03 08:18:00,69.6,66.2,29.73,North,10,2.0,4.0,89,0.00,,,0.00,Wunderground v.1.15,2013-09-03 12:18:00,
2013-09-03 08:23:00,69.8,66.7,29.74,North,9,2.0,2.0,90,0.00,,,0.00,Wunderground v.1.15,2013-09-03 12:23:00,
2013-09-03 08:29:00,70.1,67.0,29.75,NW,313,2.0,4.0,90,0.00,,,0.00,Wunderground v.1.15,2013-09-03 12:29:00,
2013-09-03 08:36:00,70.5,67.4,29.75,South,183,2.0,3.0,90,0.00,,,0.00,Wunderground v.1.15,2013-09-03 12:36:00,
2013-09-03 08:42:00,70.9,67.5,29.75,NNE,14,2.0,2.0,89,0.00,,,0.00,Wunderground v.1.15,2013-09-03 12:42:00,
2013-09-03 08:48:00,71.3,67.6,29.75,WNW,303,2.0,4.0,88,0.00,,,0.00,Wunderground v.1.15,2013-09-03 12:48:00,
2013-09-03 08:53:00,71.5,67.8,29.74,NW,311,3.0,5.0,88,0.00,,,0.00,Wunderground v.1.15,2013-09-03 12:53:00,
2013-09-03 08:59:00,71.7,68.0,29.75,SSW,196,2.0,5.0,88,0.00,,,0.00,Wunderground v.1.15,2013-09-03 12:59:00,
2013-09-03 09:04:00,71.9,67.8,29.74,SSW,195,2.0,3.0,87,0.00,,,0.00,Wunderground v.1.15,2013-09-03 13:04:00,
2013-09-03 09:11:00,72.5,68.4,29.74,WSW,256,2.0,2.0,87,0.00,,,0.00,Wunderground v.1.15,2013-09-03 13:11:00,
2013-09-03 09:17:00,73.0,68.6,29.74,ESE,121,1.0,3.0,86,0.00,,,0.00,Wunderground v.1.15,2013-09-03 13:17:00,
2013-09-03 09:23:00,73.6,68.8,29.74,NW,316,2.0,5.0,85,0.00,,,0.00,Wunderground v.1.15,2013-09-03 13:23:00,
2013-09-03 09:29:00,74.2,69.1,29.75,WSW,248,2.0,5.0,84,0.00,,,0.00,Wunderground v.1.15,2013-09-03 13:29:00,
2013-09-03 09:34:00,74.6,68.7,29.75,NW,304,1.0,3.0,82,0.00,,,0.00,Wunderground v.1.15,2013-09-03 13:34:00,
2013-09-03 09:41:00,75.3,69.4,29.74,SE,138,2.0,2.0,82,0.00,,,0.00,Wunderground v.1.15,2013-09-03 13:41:00,
2013-09-03 09:47:00,75.7,70.5,29.74,SW,235,2.0,2.0,84,0.00,,,0.00,Wunderground v.1.15,2013-09-03 13:47:00,
2013-09-03 09:52:00,76.0,69.7,29.74,WNW,299,2.0,2.0,81,0.00,,,0.00,Wunderground v.1.15,2013-09-03 13:52:00,
2013-09-03 09:58:00,76.2,70.3,29.75,SSW,204,2.0,4.0,82,0.00,,,0.00,Wunderground v.1.15,2013-09-03 13:58:00,
2013-09-03 10:04:00,76.1,69.8,29.75,SSW,206,2.0,4.0,81,0.00,,,0.00,Wunderground v.1.15,2013-09-03 14:04:00,
2013-09-03 10:09:00,76.0,69.7,29.75,WNW,290,2.0,4.0,81,0.00,,,0.00,Wunderground v.1.15,2013-09-03 14:09:00,
2013-09-03 10:16:00,75.8,69.6,29.75,SW,222,1.0,3.0,81,0.00,,,0.00,Wunderground v.1.15,2013-09-03 14:16:00,
2013-09-03 10:22:00,75.7,69.5,29.75,WSW,242,1.0,2.0,81,0.00,,,0.00,Wunderground v.1.15,2013-09-03 14:22:00,
2013-09-03 10:28:00,75.5,69.3,29.75,NW,314,2.0,3.0,81,0.00,,,0.00,Wunderground v.1.15,2013-09-03 14:28:00,
2013-09-03 10:34:00,75.2,69.7,29.74,WNW,292,2.0,2.0,83,0.00,,,0.00,Wunderground v.1.15,2013-09-03 14:34:00,
2013-09-03 10:39:00,75.0,69.5,29.75,WNW,300,2.0,2.0,83,0.00,,,0.00,Wunderground v.1.15,2013-09-03 14:39:00,
2013-09-03 10:46:00,74.8,69.3,29.74,WSW,256,1.0,3.0,83,0.00,,,0.00,Wunderground v.1.15,2013-09-03 14:46:00,
2013-09-03 10:52:00,74.9,69.7,29.74,West,268,1.0,1.0,84,0.00,,,0.00,Wunderground v.1.15,2013-09-03 14:52:00,
2013-09-03 10:58:00,75.0,70.2,29.74,West,274,1.0,2.0,85,0.00,,,0.00,Wunderground v.1.15,2013-09-03 14:58:00,
2013-09-03 11:04:00,75.1,69.6,29.74,WNW,284,1.0,2.0,83,0.00,,,0.00,Wunderground v.1.15,2013-09-03 15:04:00,
2013-09-03 11:09:00,75.3,69.4,29.74,NW,319,1.0,2.0,82,0.00,,,0.00,Wunderground v.1.15,2013-09-03 15:09:00,
2013-09-03 11:16:00,75.7,70.5,29.73,SW,219,2.0,4.0,84,0.00,,,0.00,Wunderground v.1.15,2013-09-03 15:16:00,
2013-09-03 11:21:00,76.5,69.9,29.73,SSE,162,2.0,3.0,80,0.00,,,0.00,Wunderground v.1.15,2013-09-03 15:21:00,
2013-09-03 11:27:00,77.5,70.5,29.74,SW,215,4.0,5.0,79,0.00,,,0.00,Wunderground v.1.15,2013-09-03 15:27:00,
2013-09-03 11:33:00,78.1,71.1,29.73,South,187,4.0,6.0,79,0.00,,,0.00,Wunderground v.1.15,2013-09-03 15:33:00,
2013-09-03 11:39:00,78.0,70.2,29.73,SW,229,3.0,6.0,77,0.00,,,0.00,Wunderground v.1.15,2013-09-03 15:39:00,
2013-09-03 11:44:00,77.7,70.7,29.73,SW,215,3.0,7.0,79,0.00,,,0.00,Wunderground v.1.15,2013-09-03 15:44:00,
2013-09-03 11:51:00,77.2,69.8,29.73,South,183,3.0,3.0,78,0.00,,,0.00,Wunderground v.1.15,2013-09-03 15:51:00,
2013-09-03 11:56:00,77.0,70.7,29.72,WSW,244,2.0,3.0,81,0.00,,,0.00,Wunderground v.1.15,2013-09-03 15:56:00,
2013-09-03 12:02:00,77.1,70.5,29.72,South,191,2.0,3.0,80,0.00,,,0.00,Wunderground v.1.15,2013-09-03 16:02:00,
2013-09-03 12:07:00,77.0,70.4,29.72,West,269,2.0,3.0,80,0.00,,,0.00,Wunderground v.1.15,2013-09-03 16:07:00,
2013-09-03 12:13:00,76.9,70.6,29.72,SSE,159,2.0,3.0,81,0.00,,,0.00,Wunderground v.1.15,2013-09-03 16:13:00,
2013-09-03 12:19:00,76.6,70.0,29.72,SW,225,2.0,5.0,80,0.00,,,0.00,Wunderground v.1.15,2013-09-03 16:19:00,
2013-09-03 12:24:00,76.4,70.5,29.72,SW,225,3.0,5.0,82,0.00,,,0.00,Wunderground v.1.15,2013-09-03 16:24:00,
2013-09-03 12:31:00,76.2,70.3,29.72,SSW,210,2.0,2.0,82,0.00,,,0.00,Wunderground v.1.15,2013-09-03 16:31:00,
2013-09-03 12:37:00,76.0,70.5,29.72,South,186,2.0,3.0,83,0.00,,,0.00,Wunderground v.1.15,2013-09-03 16:37:00,
2013-09-03 12:43:00,76.0,70.5,29.72,WSW,246,2.0,4.0,83,0.00,,,0.00,Wunderground v.1.15,2013-09-03 16:43:00,
2013-09-03 12:49:00,75.9,70.4,29.72,SW,227,2.0,4.0,83,0.00,,,0.00,Wunderground v.1.15,2013-09-03 16:49:00,
2013-09-03 12:56:00,75.8,70.6,29.73,South,178,1.0,4.0,84,0.00,,,0.00,Wunderground v.1.15,2013-09-03 16:56:00,
2013-09-03 13:02:00,75.6,70.4,29.72,South,175,2.0,2.0,84,0.00,,,0.00,Wunderground v.1.15,2013-09-03 17:02:00,
2013-09-03 13:07:00,75.4,70.2,29.72,SSW,192,3.0,5.0,84,0.00,,,0.00,Wunderground v.1.15,2013-09-03 17:07:00,
2013-09-03 13:13:00,75.2,70.0,29.73,SE,141,3.0,3.0,84,0.00,,,0.00,Wunderground v.1.15,2013-09-03 17:13:00,
2013-09-03 13:19:00,75.0,70.2,29.72,SW,219,2.0,4.0,85,0.00,,,0.00,Wunderground v.1.15,2013-09-03 17:19:00,
2013-09-03 13:26:00,74.9,70.1,29.72,South,179,2.0,4.0,85,0.00,,,0.00,Wunderground v.1.15,2013-09-03 17:26:00,
2013-09-03 13:32:00,75.2,70.4,29.72,ESE,107,3.0,3.0,85,0.00,,,0.00,Wunderground v.1.15,2013-09-03 17:32:00,
2013-09-03 13:38:00,75.4,70.2,29.72,SW,218,2.0,3.0,84,0.00,,,0.00,Wunderground v.1.15,2013-09-03 17:38:00,
2013-09-03 13:44:00,75.3,70.1,29.72,West,263,3.0,5.0,84,0.00,,,0.00,Wunderground v.1.15,2013-09-03 17:44:00,
2013-09-03 13:51:00,75.2,70.0,29.71,SSE,167,3.0,3.0,84,0.00,,,0.00,Wunderground v.1.15,2013-09-03 17:51:00,
2013-09-03 13:57:00,75.1,70.6,29.71,SSW,198,2.0,4.0,86,0.00,,,0.00,Wunderground v.1.15,2013-09-03 17:57:00,
2013-09-03 14:03:00,75.1,70.3,29.71,South,188,3.0,3.0,85,0.00,,,0.00,Wunderground v.1.15,2013-09-03 18:03:00,
2013-09-03 14:08:00,75.1,70.3,29.71,SW,229,3.0,4.0,85,0.00,,,0.00,Wunderground v.1.15,2013-09-03 18:08:00,
2013-09-03 14:14:00,75.5,71.0,29.71,West,267,3.0,6.0,86,0.00,,,0.00,Wunderground v.1.15,2013-09-03 18:14:00,
2013-09-03 14:19:00,75.9,71.1,29.71,SW,229,3.0,6.0,85,0.00,,,0.00,Wunderground v.1.15,2013-09-03 18:19:00,
2013-09-03 14:26:00,76.1,71.3,29.70,SE,141,2.0,4.0,85,0.00,,,0.00,Wunderground v.1.15,2013-09-03 18:26:00,
2013-09-03 14:31:00,76.2,71.0,29.69,WSW,257,2.0,7.0,84,0.00,,,0.00,Wunderground v.1.15,2013-09-03 18:31:00,
2013-09-03 14:37:00,76.0,70.8,29.70,SSW,200,3.0,7.0,84,0.00,,,0.00,Wunderground v.1.15,2013-09-03 18:37:00,
2013-09-03 14:42:00,75.8,71.0,29.70,SSW,202,3.0,5.0,85,0.00,,,0.00,Wunderground v.1.15,2013-09-03 18:42:00,
2013-09-03 14:48:00,75.6,71.1,29.70,SW,222,3.0,8.0,86,0.00,,,0.00,Wunderground v.1.15,2013-09-03 18:48:00,
2013-09-03 14:54:00,75.3,70.8,29.70,South,183,3.0,4.0,86,0.00,,,0.00,Wunderground v.1.15,2013-09-03 18:54:00,
2013-09-03 14:59:00,75.2,71.1,29.71,ESE,102,3.0,5.0,87,0.00,,,0.00,Wunderground v.1.15,2013-09-03 18:59:00,
2013-09-03 15:06:00,74.9,71.1,29.71,SW,217,4.0,4.0,88,0.00,,,0.00,Wunderground v.1.15,2013-09-03 19:06:00,
2013-09-03 15:11:00,74.6,70.8,29.70,WSW,238,3.0,3.0,88,0.00,,,0.00,Wunderground v.1.15,2013-09-03 19:11:00,
2013-09-03 15:17:00,74.2,70.4,29.70,South,186,2.0,4.0,88,0.00,,,0.01,Wunderground v.1.15,2013-09-03 19:17:00,
2013-09-03 15:23:00,73.8,70.0,29.70,WSW,246,2.0,2.0,88,0.00,,,0.01,Wunderground v.1.15,2013-09-03 19:23:00,
2013-09-03 15:29:00,73.6,70.2,29.70,South,176,3.0,4.0,89,0.00,,,0.01,Wunderground v.1.15,2013-09-03 19:29:00,
2013-09-03 15:36:00,73.3,69.9,29.70,SE,130,4.0,7.0,89,0.00,,,0.01,Wunderground v.1.15,2013-09-03 19:36:00,
2013-09-03 15:41:00,73.0,69.6,29.71,South,190,4.0,4.0,89,0.00,,,0.02,Wunderground v.1.15,2013-09-03 19:41:00,
2013-09-03 15:47:00,73.0,69.6,29.70,SSW,203,4.0,6.0,89,0.00,,,0.02,Wunderground v.1.15,2013-09-03 19:47:00,
2013-09-03 15:52:00,73.3,69.9,29.70,SW,227,4.0,5.0,89,0.00,,,0.02,Wunderground v.1.15,2013-09-03 19:52:00,
2013-09-03 15:58:00,73.8,70.4,29.70,SW,221,3.0,5.0,89,0.00,,,0.03,Wunderground v.1.15,2013-09-03 19:58:00,
2013-09-03 16:04:00,74.1,70.6,29.69,SSE,161,2.0,3.0,89,0.00,,,0.03,Wunderground v.1.15,2013-09-03 20:04:00,
2013-09-03 16:09:00,74.5,71.0,29.69,SSW,200,2.0,4.0,89,0.00,,,0.03,Wunderground v.1.15,2013-09-03 20:09:00,
2013-09-03 16:16:00,74.7,70.9,29.69,North,355,3.0,6.0,88,0.00,,,0.04,Wunderground v.1.15,2013-09-03 20:16:00,
2013-09-03 16:22:00,74.1,70.3,29.69,West,277,3.0,6.0,88,0.00,,,0.04,Wunderground v.1.15,2013-09-03 20:22:00,
2013-09-03 16:28:00,73.8,70.0,29.69,WNW,291,2.0,6.0,88,0.00,,,0.04,Wunderground v.1.15,2013-09-03 20:28:00,
2013-09-03 16:33:00,73.7,69.9,29.70,WNW,296,2.0,5.0,88,0.00,,,0.04,Wunderground v.1.15,2013-09-03 20:33:00,
2013-09-03 16:38:00,73.6,69.8,29.69,SSW,198,3.0,5.0,88,0.00,,,0.04,Wunderground v.1.15,2013-09-03 20:38:00,
2013-09-03 16:44:00,73.6,69.8,29.69,West,264,2.0,3.0,88,0.00,,,0.04,Wunderground v.1.15,2013-09-03 20:44:00,
2013-09-03 16:49:00,73.5,69.7,29.70,NE,43,2.0,3.0,88,0.00,,,0.04,Wunderground v.1.15,2013-09-03 20:49:00,
2013-09-03 16:56:00,73.3,69.5,29.70,SW,217,3.0,5.0,88,0.00,,,0.04,Wunderground v.1.15,2013-09-03 20:56:00,
2013-09-03 17:02:00,73.2,69.4,29.70,NW,325,2.0,4.0,88,0.00,,,0.04,Wunderground v.1.15,2013-09-03 21:02:00,
2013-09-03 17:07:00,73.1,69.3,29.70,West,270,2.0,4.0,88,0.00,,,0.04,Wunderground v.1.15,2013-09-03 21:07:00,
2013-09-03 17:13:00,72.9,69.1,29.70,SW,225,2.0,5.0,88,0.00,,,0.04,Wunderground v.1.15,2013-09-03 21:13:00,
2013-09-03 17:19:00,72.7,68.9,29.70,WNW,295,2.0,5.0,88,0.00,,,0.04,Wunderground v.1.15,2013-09-03 21:19:00,
2013-09-03 17:26:00,72.5,69.1,29.70,SSW,192,2.0,2.0,89,0.00,,,0.04,Wunderground v.1.15,2013-09-03 21:26:00,
2013-09-03 17:31:00,72.4,68.6,29.70,South,188,2.0,2.0,88,0.00,,,0.04,Wunderground v.1.15,2013-09-03 21:31:00,
2013-09-03 17:37:00,72.3,68.9,29.70,West,261,1.0,2.0,89,0.00,,,0.04,Wunderground v.1.15,2013-09-03 21:37:00,
2013-09-03 17:42:00,72.1,68.7,29.70,WNW,285,1.0,1.0,89,0.00,,,0.04,Wunderground v.1.15,2013-09-03 21:42:00,
2013-09-03 17:48:00,71.9,68.5,29.70,NNW,337,2.0,5.0,89,0.00,,,0.04,Wunderground v.1.15,2013-09-03 21:48:00,
2013-09-03 17:54:00,71.5,67.1,29.70,WNW,300,3.0,5.0,86,0.00,,,0.04,Wunderground v.1.15,2013-09-03 21:54:00,
2013-09-03 17:59:00,71.4,67.3,29.70,WSW,243,3.0,5.0,87,0.00,,,0.04,Wunderground v.1.15,2013-09-03 21:59:00,
2013-09-03 18:06:00,71.3,67.2,29.71,North,5,1.0,3.0,87,0.00,,,0.04,Wunderground v.1.15,2013-09-03 22:06:00,
2013-09-03 18:12:00,71.2,67.1,29.70,WNW,291,2.0,3.0,87,0.00,,,0.04,Wunderground v.1.15,2013-09-03 22:12:00,
2013-09-03 18:17:00,71.0,66.9,29.71,WNW,295,1.0,5.0,87,0.00,,,0.04,Wunderground v.1.15,2013-09-03 22:17:00,
2013-09-03 18:23:00,70.8,66.4,29.71,WNW,285,2.0,6.0,86,0.00,,,0.04,Wunderground v.1.15,2013-09-03 22:23:00,
2013-09-03 18:29:00,70.7,66.3,29.71,WNW,295,2.0,6.0,86,0.00,,,0.04,Wunderground v.1.15,2013-09-03 22:29:00,
2013-09-03 18:36:00,70.6,66.2,29.71,NW,325,1.0,1.0,86,0.00,,,0.04,Wunderground v.1.15,2013-09-03 22:36:00,
2013-09-03 18:42:00,70.5,66.4,29.71,WNW,300,1.0,2.0,87,0.00,,,0.04,Wunderground v.1.15,2013-09-03 22:42:00,
2013-09-03 18:48:00,70.4,66.3,29.72,West,274,1.0,2.0,87,0.00,,,0.04,Wunderground v.1.15,2013-09-03 22:48:00,
2013-09-03 18:54:00,70.2,66.1,29.72,WNW,296,1.0,2.0,87,0.00,,,0.04,Wunderground v.1.15,2013-09-03 22:54:00,
2013-09-03 19:01:00,70.0,66.0,29.72,NNW,344,1.0,1.0,87,0.00,,,0.04,Wunderground v.1.15,2013-09-03 23:01:00,
2013-09-03 19:06:00,69.9,65.5,29.72,NNW,333,1.0,2.0,86,0.00,,,0.04,Wunderground v.1.15,2013-09-03 23:06:00,
2013-09-03 19:12:00,69.8,65.4,29.73,West,264,1.0,2.0,86,0.00,,,0.04,Wunderground v.1.15,2013-09-03 23:12:00,
2013-09-03 19:18:00,69.7,65.7,29.73,West,264,0.0,2.0,87,0.00,,,0.04,Wunderground v.1.15,2013-09-03 23:18:00,
2013-09-03 19:24:00,69.6,65.6,29.73,West,277,0.0,1.0,87,0.00,,,0.04,Wunderground v.1.15,2013-09-03 23:24:00,
2013-09-03 19:31:00,69.4,65.4,29.73,NW,317,0.0,1.0,87,0.00,,,0.04,Wunderground v.1.15,2013-09-03 23:31:00,
2013-09-03 19:37:00,69.3,65.3,29.73,NW,313,0.0,1.0,87,0.00,,,0.04,Wunderground v.1.15,2013-09-03 23:37:00,
2013-09-03 19:43:00,69.0,65.0,29.74,WNW,294,0.0,1.0,87,0.00,,,0.04,Wunderground v.1.15,2013-09-03 23:43:00,
2013-09-03 19:49:00,68.8,64.8,29.74,West,272,0.0,1.0,87,0.00,,,0.04,Wunderground v.1.15,2013-09-03 23:49:00,
2013-09-03 19:57:00,68.4,64.7,29.74,NW,314,0.0,2.0,88,0.00,,,0.04,Wunderground v.1.15,2013-09-03 23:57:00,
2013-09-03 20:03:00,68.0,64.3,29.75,NW,313,1.0,1.0,88,0.00,,,0.04,Wunderground v.1.15,2013-09-04 00:03:00,
2013-09-03 20:08:00,67.8,64.1,29.75,NW,323,1.0,1.0,88,0.00,,,0.04,Wunderground v.1.15,2013-09-04 00:08:00,
2013-09-03 20:13:00,67.5,63.8,29.75,NW,322,1.0,1.0,88,0.00,,,0.04,Wunderground v.1.15,2013-09-04 00:13:00,
2013-09-03 20:18:00,67.2,63.5,29.75,NW,319,1.0,1.0,88,0.00,,,0.04,Wunderground v.1.15,2013-09-04 00:18:00,
2013-09-03 20:24:00,67.0,63.3,29.75,NW,319,0.0,0.0,88,0.00,,,0.04,Wunderground v.1.15,2013-09-04 00:24:00,
2013-09-03 20:29:00,66.7,63.0,29.76,NW,319,0.0,1.0,88,0.00,,,0.04,Wunderground v.1.15,2013-09-04 00:29:00,
2013-09-03 20:36:00,66.3,63.0,29.76,NW,319,0.0,1.0,89,0.00,,,0.04,Wunderground v.1.15,2013-09-04 00:36:00,
2013-09-03 20:42:00,66.0,62.7,29.76,NW,319,0.0,0.0,89,0.00,,,0.04,Wunderground v.1.15,2013-09-04 00:42:00,
2013-09-03 20:48:00,65.7,62.4,29.76,NW,319,0.0,0.0,89,0.00,,,0.04,Wunderground v.1.15,2013-09-04 00:48:00,
2013-09-03 20:54:00,65.4,62.1,29.76,NW,319,0.0,0.0,89,0.00,,,0.04,Wunderground v.1.15,2013-09-04 00:54:00,
2013-09-03 21:01:00,65.0,61.7,29.77,NW,319,0.0,0.0,89,0.00,,,0.04,Wunderground v.1.15,2013-09-04 01:01:00,
2013-09-03 21:06:00,64.7,61.4,29.76,NW,319,0.0,0.0,89,0.00,,,0.04,Wunderground v.1.15,2013-09-04 01:06:00,
2013-09-03 21:12:00,64.5,61.2,29.77,NW,319,0.0,0.0,89,0.00,,,0.04,Wunderground v.1.15,2013-09-04 01:12:00,
2013-09-03 21:17:00,64.3,61.0,29.77,NW,319,0.0,0.0,89,0.00,,,0.04,Wunderground v.1.15,2013-09-04 01:17:00,
2013-09-03 21:23:00,64.0,60.7,29.77,NW,319,0.0,0.0,89,0.00,,,0.04,Wunderground v.1.15,2013-09-04 01:23:00,
2013-09-03 21:29:00,63.8,60.5,29.77,NW,319,0.0,1.0,89,0.00,,,0.04,Wunderground v.1.15,2013-09-04 01:29:00,
2013-09-03 21:36:00,63.5,60.2,29.77,NNW,333,0.0,1.0,89,0.00,,,0.04,Wunderground v.1.15,2013-09-04 01:36:00,
2013-09-03 21:42:00,63.3,60.0,29.78,NNW,333,0.0,0.0,89,0.00,,,0.04,Wunderground v.1.15,2013-09-04 01:42:00,
2013-09-03 21:48:00,63.1,59.8,29.78,NNW,333,0.0,1.0,89,0.00,,,0.04,Wunderground v.1.15,2013-09-04 01:48:00,
2013-09-03 21:54:00,62.9,59.3,29.78,NNW,333,0.0,0.0,88,0.00,,,0.04,Wunderground v.1.15,2013-09-04 01:54:00,
2013-09-03 22:01:00,62.7,59.1,29.78,NNW,333,0.0,0.0,88,0.00,,,0.04,Wunderground v.1.15,2013-09-04 02:01:00,
2013-09-03 22:06:00,62.7,59.1,29.78,NNE,25,1.0,2.0,88,0.00,,,0.04,Wunderground v.1.15,2013-09-04 02:06:00,
2013-09-03 22:12:00,62.6,59.0,29.78,NNE,26,1.0,1.0,88,0.00,,,0.04,Wunderground v.1.15,2013-09-04 02:12:00,
2013-09-03 22:18:00,62.3,59.0,29.78,NNE,25,0.0,1.0,89,0.00,,,0.04,Wunderground v.1.15,2013-09-04 02:18:00,
2013-09-03 22:24:00,62.1,58.5,29.79,NNE,26,0.0,0.0,88,0.00,,,0.04,Wunderground v.1.15,2013-09-04 02:24:00,
2013-09-03 22:31:00,61.9,58.3,29.79,East,84,0.0,0.0,88,0.00,,,0.04,Wunderground v.1.15,2013-09-04 02:31:00,
2013-09-03 22:37:00,61.8,58.5,29.79,East,84,0.0,1.0,89,0.00,,,0.04,Wunderground v.1.15,2013-09-04 02:37:00,
2013-09-03 22:43:00,61.7,58.4,29.79,NW,310,1.0,1.0,89,0.00,,,0.04,Wunderground v.1.15,2013-09-04 02:43:00,
2013-09-03 22:49:00,61.6,58.3,29.79,West,278,1.0,2.0,89,0.00,,,0.04,Wunderground v.1.15,2013-09-04 02:49:00,
2013-09-03 22:54:00,61.6,58.3,29.79,NNW,331,1.0,3.0,89,0.00,,,0.04,Wunderground v.1.15,2013-09-04 02:54:00,
2013-09-03 23:01:00,61.8,58.5,29.79,NNW,339,1.0,1.0,89,0.00,,,0.04,Wunderground v.1.15,2013-09-04 03:01:00,
2013-09-03 23:06:00,61.7,58.4,29.79,NNW,339,0.0,1.0,89,0.00,,,0.04,Wunderground v.1.15,2013-09-04 03:06:00,
2013-09-03 23:12:00,61.5,58.2,29.79,North,355,0.0,1.0,89,0.00,,,0.04,Wunderground v.1.15,2013-09-04 03:12:00,
2013-09-03 23:18:00,61.3,58.0,29.79,NNW,334,0.0,1.0,89,0.00,,,0.04,Wunderground v.1.15,2013-09-04 03:18:00,
2013-09-03 23:24:00,61.1,57.8,29.79,NW,313,0.0,1.0,89,0.00,,,0.04,Wunderground v.1.15,2013-09-04 03:24:00,
2013-09-03 23:29:00,60.8,57.5,29.79,NW,309,0.0,2.0,89,0.00,,,0.04,Wunderground v.1.15,2013-09-04 03:29:00,
2013-09-03 23:36:00,60.6,57.3,29.79,NNW,340,1.0,2.0,89,0.00,,,0.04,Wunderground v.1.15,2013-09-04 03:36:00,
2013-09-03 23:42:00,60.7,57.4,29.78,North,355,1.0,1.0,89,0.00,,,0.04,Wunderground v.1.15,2013-09-04 03:42:00,
2013-09-03 23:47:00,61.0,57.7,29.79,NW,306,1.0,3.0,89,0.00,,,0.04,Wunderground v.1.15,2013-09-04 03:47:00,
2013-09-03 23:53:00,61.2,57.9,29.79,West,269,2.0,2.0,89,0.00,,,0.04,Wunderground v.1.15,2013-09-04 03:53:00,
2013-09-03 23:58:00,61.3,57.7,29.79,WNW,296,2.0,3.0,88,0.00,,,0.04,Wunderground v.1.15,2013-09-04 03:58:00,